Regional Weather Roundup
Issued by NWS

Home | Current Version | Previous Version | Text Only | Print | Product List | Glossary Off
Versions: 1 2 3 4 5 6 7 8 9 10 11 12 13 14 15 16 17 18 19 20 21 22 23 24 25 26 27 28 29 30 31 32 33 34 35 36 37 38 39 40 41 42 43 44 45 46 47 48 49 50

000
ASUS45 KPSR 210300
RWRAZ

PRELIMINARY ARIZONA REGIONAL HOURLY WEATHER ROUNDUP
NATIONAL WEATHER SERVICE PHOENIX AZ
800 PM MST WED AUG 20 2014

NOTE: FAIR INDICATES FEW OR NO CLOUDS BELOW 12,000 FEET WITH NO
SIGNIFICANT WEATHER AND/OR OBSTRUCTIONS TO VISIBILITY.

AZZ001>003-036-210400-
NORTHWEST ARIZONA

CITY           SKY/WX    TMP DP  RH WIND       PRES   REMARKS
KINGMAN        PTCLDY    80  47  31 SW8       29.97R
$$

AZZ004>008-015-016-018-210400-
NORTH CENTRAL ARIZONA

CITY           SKY/WX    TMP DP  RH WIND       PRES   REMARKS
GRAND CANYON   LGT RAIN N/A N/A N/A MISG        N/A
WILLIAMS       CLEAR     61  48  63 CALM      30.27R
PRESCOTT       PTCLDY    69  53  56 SW3       30.10R
FLAGSTAFF      CLEAR     56  48  74 CALM      30.24R
PAYSON         PTCLDY    64  54  68 NW6       30.13R
PAGE           PTCLDY    78  43  28 W6        30.03R
$$

AZZ009>014-017-210400-
NORTHEAST ARIZONA

CITY           SKY/WX    TMP DP  RH WIND       PRES   REMARKS
WINSLOW        NOT AVBL
SAINT JOHNS    CLEAR     70  45  40 W8        30.12R
WINDOW ROCK    CLEAR     65  36  34 W5        30.17R
SHOW LOW       MOCLDY    59  48  67 SW5       30.21R
$$

AZZ023-210400-
GREATER PHOENIX AREA

CITY           SKY/WX    TMP DP  RH WIND       PRES   REMARKS
PHOENIX        CLOUDY    95  52  23 NE6       29.80R
GLENDALE       PTCLDY    95  52  23 CALM      29.81R
LUKE AFB       NOT AVBL
DEER VALLEY    CLOUDY    91  57  31 CALM      29.83R
SCOTTSDALE     MOCLDY    92  54  27 CALM      29.85R
MESA-GATEWAY   MOCLDY    93  54  26 NW5       29.85R
CHANDLER       MOCLDY    93  55  27 N8        29.82R
$$

AZZ027-028-210400-
SOUTHWEST MARICOPA COUNTY AND PINAL COUNTY

CITY           SKY/WX    TMP DP  RH WIND       PRES   REMARKS
CASA GRANDE    CLOUDY    90  55  31 SW14G22   29.86R
GILA BEND      MOCLDY    86  55  35 N8        29.84R
$$

AZZ503-504-507>509-210400-
SOUTHEAST ARIZONA

CITY           SKY/WX    TMP DP  RH WIND       PRES   REMARKS
TUCSON         MOCLDY    85  56  37 S7        29.95R
RYAN FIELD       N/A     84  55  37 SW12G18   29.94R
NOGALES        MOCLDY    69  63  81 E5        30.05R
SIERRA VISTA   MOCLDY    70  57  64 SW8       30.10R
SAFFORD        PTCLDY    80  58  46 NW3       29.93R
$$

AZZ020-021-025-026-031-210400-
SOUTHWEST ARIZONA

CITY           SKY/WX    TMP DP  RH WIND       PRES   REMARKS
YUMA           MOCLDY    95  55  26 S10       29.74R
$$

CAZ031-033-041-043-047-048-061-210400-
SOUTHERN CALIFORNIA

CITY           SKY/WX    TMP DP  RH WIND       PRES   REMARKS
DOWNTOWN L.A.  CLEAR     71  60  68 SW5       29.88S
L.A. AIRPORT   PTCLDY    69  61  75 SW14      29.89S
SAN DIEGO      MOCLDY    72  60  66 W8        29.91R
BURBANK        CLEAR     72  58  61 S8        29.88S
ONTARIO        PTCLDY    75  59  57 W9        29.90R
RIVERSIDE      PTCLDY    74  61  63 W6        29.89R
PALM SPRINGS   CLEAR     89  52  28 NW17      29.79R
EL CENTRO NAS  CLEAR     94  51  23 W18       29.73R
IMPERIAL       CLEAR     90  55  30 W12       29.72R
BLYTHE         TSTM      87  58  37 N8        29.75F
$$

NVZ020-UTZ003-210400-
SOUTHERN NEVADA-UTAH

CITY           SKY/WX    TMP DP  RH WIND       PRES   REMARKS
LAS VEGAS      NOT AVBL
SALT LAKE CITY MOCLDY    73  52  47 SE7       29.94R
$$

NMZ009-TXZ055-210400-
NEW MEXICO-WEST TEXAS

CITY           SKY/WX    TMP DP  RH WIND       PRES   REMARKS
ALBUQUERQUE    PTCLDY    80  44  27 W7        30.04R
EL PASO        PTCLDY    86  45  23 W13       29.97R
$$


........................KEY........................
SKY/WX - SKY CONDITION/WEATHER
TMP    - TEMPERATURE IN FAHRENHEIT
DP     - DEW POINT IN FAHRENHEIT
RH     - RELATIVE HUMIDITY IN PERCENT
WIND   - DIRECTION AND SPEED IN MILES PER HOUR (MPH)
VRB    - VARIABLE WIND DIRECTION
PRES   - MEAN SEA LEVEL PRESSURE IN INCHES OF MERCURY
         F - FALLING PRESSURE   R - RISING PRESSURE
         S - STEADY PRESSURE
VSB    - VISIBILITY IN MILES
HX     - HEAT INDEX IN FAHRENHEIT
WCI    - WIND CHILL INDEX IN FAHRENHEIT
TC     - TEMPERATURE IN CELSIUS WHICH IS ALSO KNOWN AS
         TEMPERATURE IN CENTIGRADE
AFB    - AIR FORCE BASE
         LUKE AFB IS LUKE AIR FORCE BASE
         DAVIS-MONTHAN IS DAVIS-MONTHAN AIR FORCE BASE
NAS    - NAVAL AIR STATION
         EL CENTRO NAS IS EL CENTRO NAVAL AIR STATION
N/A    - NOT AVAILABLE


USA.gov is the U.S. government's official web portal to all federal, state and local government web resources and services.